Theta_e
291 290 289 286 286 288 287 289 286 290 289 293 292 290 291 289 288 288 288 288 288 287 286 285 284 283 283 284 284 284 283 282 282 282 281 280 280 279 278 278 277 277 276 275
288 289 289 288 287 287 288 289 290 290 290 294 296 294 289 290 290 289 289 289 289 288 287 285 285 284 283 284 284 284 283 282 282 281 281 280 280 279 278 277 277 276 275 274
285 287 287 284 289 290 291 290 289 285 291 291 292 292 289 289 290 290 290 290 290 288 287 286 286 286 284 284 284 283 283 282 281 282 281 281 281 279 278 277 275 275 274 274
285 286 279 288 293 295 293 294 293 291 291 289 292 293 291 291 291 291 291 291 290 290 289 287 286 286 285 283 283 283 282 282 282 281 281 280 279 279 277 275 275 274 274 274
283 284 286 288 284 287 289 290 296 294 295 295 290 288 288 290 291 293 292 292 292 291 290 288 286 286 284 282 283 282 282 282 282 282 281 280 279 278 277 276 274 274 273 272
283 281 280 283 282 285 291 286 291 294 295 295 287 286 293 288 289 290 290 290 289 289 289 288 287 285 284 283 282 282 282 282 283 283 282 280 280 278 277 276 276 274 274 272
284 283 283 282 281 283 282 283 279 282 286 285 288 291 289 288 288 288 288 288 289 289 288 288 287 285 284 282 281 283 282 281 281 281 281 281 279 276 273 274 273 272 271 271
282 281 279 285 282 284 285 282 283 283 284 284 284 283 284 284 284 285 286 285 285 284 283 283 284 284 281 281 282 279 279 279 280 280 280 278 277 273 273 272 271 270 269 268
284 284 281 282 283 284 284 282 282 284 283 283 282 281 281 281 282 282 283 283 282 283 281 281 280 282 280 278 278 277 277 277 276 275 276 276 275 271 269 270 271 270 269 270
284 284 281 281 285 283 282 281 281 283 284 281 280 280 280 280 280 280 278 278 277 278 277 275 274 276 274 275 275 274 273 271 270 272 268 267 270 271 271 269 269 269 268 268
280 279 281 283 283 285 284 281 281 281 282 282 280 279 280 278 277 278 277 276 276 276 274 273 272 271 269 271 272 271 269 269 269 267 267 267 267 267 268 266 270 265 263 264
281 283 285 284 285 285 285 282 281 280 280 280 280 280 279 278 277 277 276 273 273 271 273 269 270 267 264 265 269 271 269 269 268 267 266 266 266 265 274 274 275 277 276 270
284 283 284 281 285 285 283 281 280 280 281 280 279 278 278 278 277 276 275 274 274 274 273 271 269 266 262 263 267 266 267 267 266 267 266 265 263 264 263 266 277 278 278 278
282 282 281 279 279 283 282 281 280 278 278 278 277 275 275 275 273 273 272 271 271 270 267 265 263 259 260 259 262 262 265 267 266 265 264 263 262 261 260 260 260 261 270 272
279 279 279 279 278 277 277 276 275 276 274 274 272 273 273 273 273 271 267 267 266 265 262 262 260 257 257 259 263 262 264 262 262 261 260 261 261 261 259 259 259 260 262 265
275 276 276 276 276 275 274 274 273 273 272 271 271 271 270 270 267 264 262 261 264 262 258 260 258 256 256 259 259 259 259 261 260 259 258 258 259 258 259 260 257 255 255 257
270 270 269 269 272 272 271 271 272 272 271 270 268 267 266 263 260 259 257 258 259 257 257 257 254 252 252 256 257 256 256 257 258 257 256 258 258 259 256 253 254 253 255 257
264 266 266 266 267 268 266 264 265 264 263 263 263 264 262 261 260 256 254 254 254 252 251 249 249 250 252 253 255 255 255 254 255 256 257 257 256 254 253 253 252 252 253 255
259 260 261 261 260 261 259 259 258 259 259 258 260 257 256 255 255 251 250 252 252 253 251 248 261 251 251 255 255 256 258 257 256 254 254 254 253 250 250 250 249 249 250 251
256 257 257 256 256 255 255 255 255 255 254 255 254 254 252 250 250 251 249 248 246 249 247 248 250 251 253 259 260 257 256 256 256 253 253 254 253 251 251 253 252 250 247 248
253 254 254 254 253 253 252 252 252 252 252 252 253 251 250 247 249 248 250 252 249 249 250 255 255 255 255 256 255 253 253 254 254 252 252 251 250 248 250 247 247 249 250 248
250 251 252 252 252 251 250 250 251 252 252 252 251 251 251 249 249 251 250 252 252 256 255 254 253 255 254 258 254 254 254 254 254 252 250 248 247 248 248 248 249 250 250 250
249 249 252 252 251 248 250 250 251 251 252 251 251 251 252 252 252 253 252 252 252 256 254 255 256 258 259 255 256 255 254 253 252 251 248 247 249 248 249 250 250 250 249 250
248 250 249 247 248 252 251 247 248 248 249 249 250 251 252 252 252 253 254 255 256 255 253 254 257 263 260 252 252 251 250 249 249 247 248 251 247 248 248 249 250 251 250 250
248 247 248 249 252 250 247 246 248 247 248 248 248 249 249 250 250 250 250 253 257 254 253 256 261 260 251 249 249 250 250 248 248 247 248 247 248 248 249 249 249 250 250 251
248 249 248 248 248 249 249 249 249 248 248 248 248 249 249 250 252 251 251 253 252 254 252 252 251 251 252 253 253 253 252 252 253 252 251 250 249 249 249 250 250 251 251 253
252 251 249 249 251 250 248 249 248 248 248 247 249 249 250 249 250 252 252 251 252 252 251 250 252 254 252 253 254 254 254 253 253 252 250 250 250 250 250 251 250 251 254 254
Wind_Speed
18 5 5 7 14 20 23 31 16 31 26 16 10 12 11 8 9 11 14 17 18 18 17 15 15 15 14 14 14 13 13 12 12 10 10 10 9 9 8 8 7 7 7 6
21 9 8 8 9 20 24 23 27 27 37 7 9 6 8 13 15 17 17 19 19 17 17 17 17 17 15 14 14 14 14 14 11 12 12 11 10 10 9 8 7 7 7 7
20 9 8 9 36 21 20 18 22 27 41 5 12 11 9 11 15 19 19 20 20 20 17 16 17 16 16 15 13 13 13 11 12 13 12 12 10 10 10 10 7 8 7 7
12 7 14 15 9 28 31 33 24 25 21 10 14 14 11 10 17 18 18 17 17 16 15 14 14 13 12 13 14 15 13 11 12 12 12 10 10 12 9 8 10 8 8 7
8 14 10 15 6 11 15 26 26 30 28 24 7 2 8 8 9 14 13 13 14 13 14 15 17 16 15 14 15 14 14 13 13 14 13 13 14 13 10 9 7 8 5 8
5 8 12 6 2 3 7 19 12 22 25 22 9 10 18 7 8 9 11 10 10 10 9 15 14 15 16 15 14 16 15 14 13 14 14 14 14 12 8 7 9 7 8 8
15 11 5 6 5 2 9 8 2 1 2 8 9 8 2 8 4 5 5 8 8 11 13 12 13 15 14 12 15 11 9 8 9 11 13 12 10 7 7 9 6 7 7 6
6 5 10 9 3 8 4 1 2 2 3 6 5 3 5 6 6 8 9 8 7 9 8 7 9 11 9 10 7 7 8 9 10 10 8 7 10 7 6 8 8 8 7 5
10 6 2 1 2 3 1 1 1 2 3 6 6 4 6 6 7 6 7 7 6 10 9 6 6 8 10 5 7 7 8 8 7 6 7 8 10 8 5 7 8 7 7 7
4 5 4 4 4 3 1 2 3 4 3 4 5 6 4 5 6 6 4 6 5 9 8 5 3 4 4 5 6 7 6 6 5 7 5 4 3 5 6 7 6 5 6 6
3 3 3 7 6 4 5 5 4 3 3 5 7 5 5 5 4 4 5 4 5 7 6 4 5 4 2 4 6 5 4 4 4 4 5 4 2 4 4 2 6 4 4 4
5 5 3 3 11 9 7 5 5 5 2 2 5 7 6 5 4 5 6 3 5 5 7 4 6 5 3 2 5 7 5 4 4 4 3 4 4 0 7 9 11 13 12 9
2 4 2 3 6 6 6 6 4 5 4 6 4 4 5 4 4 5 5 6 6 6 6 6 7 6 4 3 4 5 6 5 4 5 5 5 3 4 4 3 10 11 11 11
3 6 2 4 4 5 7 7 5 5 4 4 4 3 4 5 4 5 4 2 5 7 7 6 7 5 4 3 4 4 4 6 4 4 4 4 4 3 3 3 2 1 6 6
7 6 4 7 6 6 4 3 5 5 3 4 4 4 4 6 6 6 5 5 7 7 6 6 6 2 3 2 5 5 4 3 4 4 4 5 4 4 3 3 2 1 2 3
8 8 9 11 8 8 6 7 5 3 2 2 4 5 5 7 8 7 6 4 5 4 3 5 5 2 3 5 6 5 5 8 5 4 4 4 3 3 3 3 2 1 1 2
3 4 6 7 8 8 8 6 6 4 5 6 5 5 7 8 8 6 6 6 8 7 5 4 4 3 3 3 5 4 4 4 6 4 4 3 3 3 3 3 2 1 2 2
6 6 6 5 5 4 5 7 6 7 5 4 4 6 7 5 6 5 5 6 9 8 6 2 2 2 4 4 5 4 4 4 3 4 3 3 3 3 3 2 1 1 2 3
6 7 8 9 7 5 5 5 5 4 5 4 7 7 5 6 7 5 3 6 6 6 2 3 4 4 4 4 4 3 4 4 3 2 2 3 2 1 1 2 2 2 2 3
7 6 8 9 10 8 7 6 6 8 7 6 6 7 8 6 5 7 5 5 1 2 2 2 4 4 3 5 6 3 3 3 3 2 2 2 2 1 1 2 2 2 2 3
7 8 9 9 9 8 7 5 5 8 6 7 8 8 7 3 5 4 5 4 3 1 3 4 2 2 2 4 4 3 3 3 2 2 1 2 1 1 2 3 3 3 4 3
5 5 8 7 8 9 7 6 6 7 9 9 7 7 7 5 4 5 2 4 2 4 2 2 2 3 2 4 2 2 2 2 2 1 2 2 2 3 3 3 4 4 4 5
5 4 6 7 7 4 5 7 7 8 9 7 7 6 5 2 1 2 2 2 1 2 1 1 3 4 4 2 1 2 2 2 2 3 3 3 4 4 4 4 4 4 4 5
4 6 5 3 3 7 11 4 5 5 6 4 5 3 3 2 3 3 3 3 3 2 2 2 3 3 4 2 1 1 1 2 3 3 3 4 3 3 4 5 5 5 5 5
5 3 4 4 7 4 3 2 4 5 6 5 4 3 4 2 3 2 1 1 2 2 2 4 4 1 2 2 3 3 3 3 3 3 3 3 4 4 5 5 5 5 5 5
4 3 2 3 2 2 2 3 4 2 3 2 2 2 2 2 2 2 1 2 2 3 2 3 3 2 3 3 4 4 4 4 4 4 4 4 5 5 5 5 5 5 4 5
5 5 3 4 5 4 4 4 3 2 2 2 0 3 2 3 3 2 2 2 2 3 3 3 3 4 3 4 4 4 3 4 5 4 4 5 4 5 5 5 5 4 6 6
Wind_Direction
239 178 151 195 202 203 207 225 213 257 243 232 217 218 215 180 164 173 185 188 191 188 184 181 179 177 176 179 173 169 167 169 174 166 163 163 167 171 163 160 166 161 154 161
252 222 223 229 218 215 226 235 239 255 262 151 232 236 180 193 184 191 196 198 196 189 184 185 183 183 179 178 176 171 176 181 170 169 172 176 174 171 168 165 167 158 169 169
244 175 229 250 234 223 229 231 224 235 246 204 243 228 216 210 195 200 200 195 192 190 186 183 186 181 183 177 165 176 181 176 174 176 178 181 174 170 175 178 165 178 177 177
247 137 220 245 174 219 223 235 224 246 249 204 231 236 229 204 194 201 199 191 187 180 181 178 169 171 165 165 172 183 186 180 178 174 181 174 174 185 178 176 184 182 186 190
225 225 265 273 186 153 182 245 226 232 247 248 216 167 260 212 210 205 194 187 182 179 168 160 166 170 168 169 177 181 191 187 177 178 181 179 188 189 186 179 181 192 182 191
168 224 224 290 185 171 104 260 187 209 235 237 133 224 252 164 163 164 160 159 152 153 151 161 169 162 166 180 179 191 187 186 180 185 185 188 192 187 178 185 196 188 203 200
226 237 274 240 243 282 153 240 296 343 271 139 194 231 261 139 98 106 125 145 132 148 168 169 154 162 178 170 193 184 166 159 168 182 189 192 184 174 170 186 173 194 204 201
218 236 245 172 86 176 207 18 187 146 164 129 134 75 86 94 104 109 117 113 108 117 116 113 130 142 143 178 172 144 143 159 176 183 182 172 176 175 173 174 188 202 206 222
196 200 343 139 10 359 18 137 148 141 157 140 126 125 136 134 135 129 133 122 111 127 123 123 135 147 164 176 140 140 152 177 177 164 175 174 179 174 158 178 198 210 210 230
132 200 215 225 175 194 27 70 29 30 97 130 123 141 122 127 131 125 116 125 118 116 118 127 126 95 93 143 143 142 160 166 151 168 160 139 128 158 176 185 201 206 205 227
315 261 311 253 236 177 142 118 108 80 88 126 132 141 142 129 112 111 113 96 117 132 130 131 109 114 120 134 131 136 126 143 148 134 146 137 108 162 169 187 187 185 201 176
210 195 162 230 193 186 172 165 111 101 90 95 138 151 131 130 141 140 136 110 95 89 116 125 117 104 71 124 141 141 144 152 157 146 141 145 152 135 229 215 221 225 222 202
250 183 141 47 104 119 125 131 134 151 141 122 94 109 111 121 114 105 101 124 133 138 122 117 104 88 18 25 121 143 152 154 152 153 162 159 147 167 197 294 249 234 234 242
60 109 42 36 86 125 132 143 116 89 73 90 108 73 98 104 93 113 121 132 114 108 99 101 94 71 342 341 105 132 143 145 151 151 152 147 146 151 144 147 155 323 16 352
26 36 71 101 68 66 67 89 89 103 107 85 55 114 110 124 129 114 81 77 82 88 92 100 107 73 326 95 105 94 91 93 103 99 100 113 115 113 115 107 110 114 349 323
332 44 56 66 59 40 47 34 79 67 76 108 101 93 108 101 99 90 74 68 112 138 132 116 104 8 4 88 102 92 88 103 93 103 99 92 91 99 96 115 125 178 218 248
102 36 19 46 44 43 42 28 31 27 43 43 35 93 91 95 89 82 61 52 73 78 69 82 99 12 29 83 101 105 98 91 104 90 91 102 108 117 127 127 145 189 249 265
27 58 47 53 41 48 56 38 35 40 33 352 46 76 88 92 124 117 98 94 87 69 51 50 101 71 65 77 93 98 103 104 96 111 116 110 119 113 102 104 147 236 275 289
32 58 56 55 30 63 55 42 40 40 25 37 77 75 73 78 103 109 102 90 93 107 278 281 122 85 82 101 82 98 104 109 101 92 111 128 109 116 155 192 234 252 265 291
50 62 75 70 52 48 52 32 43 49 29 60 75 74 73 54 72 91 66 80 280 221 166 104 99 90 69 83 95 84 98 113 134 141 137 138 149 203 242 256 255 264 275 274
39 49 58 62 58 43 37 24 53 61 38 53 84 81 87 56 74 98 83 97 300 93 113 97 99 88 70 105 102 110 117 124 117 135 155 186 206 265 267 267 261 254 263 254
21 47 66 64 66 62 29 32 49 67 68 71 68 69 77 62 59 60 42 139 198 157 136 121 127 157 168 141 131 145 157 160 171 177 209 215 218 234 242 241 248 251 248 251
36 36 66 63 71 78 58 48 49 61 67 59 65 64 72 69 29 77 73 323 93 145 96 136 187 191 193 194 210 187 177 191 215 221 228 224 227 226 235 245 245 244 253 255
29 37 54 52 68 75 74 9 55 60 76 66 66 56 78 77 30 20 55 105 114 103 153 209 267 229 136 147 163 174 217 228 236 242 243 243 234 241 247 250 256 252 254 260
56 42 34 41 65 55 90 89 77 53 59 49 37 27 29 5 132 245 65 15 345 69 326 303 260 152 152 198 206 208 217 219 230 228 238 239 248 248 251 249 248 252 249 248
58 73 54 42 63 39 47 58 76 35 63 53 5 11 359 351 18 37 314 290 276 275 262 275 267 259 236 234 231 230 226 234 237 240 237 240 241 247 247 251 252 250 251 258
58 51 28 30 23 19 31 42 60 28 23 38 322 312 329 333 336 337 315 303 288 271 265 261 250 250 237 243 248 247 244 243 240 236 239 245 243 244 246 245 243 242 259 262